7 * 24
多渠道服务支持
STARLINK-37566(NORAD编号68908)是美国SpaceX公司星链(Starlink)星座中的一颗低轨互联网卫星,作为星链大规模组网的组成部分,服务于全球高速卫星互联网接入。 星链计划是全球规模最大的低轨星座项目,总规划超过4万颗卫星,该卫星部署于近地轨道,为偏远无基础设施区域提供宽带服务,也可支持移动场景、商业应急通信等应用。作为SpaceX批量发射组网的卫星之一,它助力星链实现全球覆盖,为用户提供低时延宽带接入服务。
美国
(US)
| 数据来源 | 国际轨道数据 |
| 星历时间: | 2026-05-24T12:00:02+0800 1天前 查看轨道信息 |
| 半长轴: | 6822.658km |
| 偏心率: | 0.0002228 |
| 轨道倾角: | 97.284° |
| 近地点辐角 | 94.881° |
| 升交点赤经 | 339.974° |
| 平近点角 | 174.830° |
| 近地点: | 443km |
| 远地点: | 446.042km |
| 周期: | 93.474分钟 |
| 每日圈数: | 15.405381 |